When you browse on this site, cookies collect data to enhance your experience and personalize the content and advertising you see.
Visit our Privacy Policy to learn more. By continuing to use the site, you agree to this use of cookies and data.
  • In Austria
  • List of Countries
  • For 7 days
  • Water Temperature
  • Satellite Maps
  • Weather Map
  • News
  • Weather Widgets
  • user-avatar
    Login

    Hourly Weather Stoki

    Today, 21 February, Thursday

    Time Temperature Precipitation Wind Pressure Humidity
    00:00 +6°C° 0 mm 2 mps 760 mmHg 87%
    01:00 +5°C° 0 mm 2 mps 760 mmHg 91%
    02:00 +5°C° 0 mm 2 mps 760 mmHg 90%
    03:00 +4°C° 0 mm 3 mps 760 mmHg 89%
    04:00 +4°C° 0 mm 3 mps 760 mmHg 88%
    05:00 +4°C° 0 mm 3 mps 760 mmHg 87%
    06:00 +4°C° 0 mm 3 mps 760 mmHg 86%
    07:00 +5°C° 0 mm 4 mps 760 mmHg 84%
    08:00 +5°C° 0.2 mm 4 mps 760 mmHg 83%
    09:00 +5°C° 0.2 mm 4 mps 760 mmHg 82%
    10:00 +6°C° 0.2 mm 4 mps 760 mmHg 81%
    11:00 +6°C° 0.2 mm 5 mps 759 mmHg 79%
    12:00 +7°C° 0.2 mm 5 mps 759 mmHg 77%
    13:00 +7°C° 0 mm 6 mps 759 mmHg 77%
    14:00 +7°C° 0.1 mm 5 mps 759 mmHg 77%
    15:00 +7°C° 0.1 mm 5 mps 759 mmHg 78%
    16:00 +7°C° 0.1 mm 5 mps 758 mmHg 79%
    17:00 +7°C° 0.2 mm 5 mps 758 mmHg 81%
    18:00 +7°C° 0.2 mm 5 mps 758 mmHg 84%
    19:00 +7°C° 0.2 mm 5 mps 758 mmHg 86%
    20:00 +7°C° 0.3 mm 5 mps 758 mmHg 87%
    21:00 +7°C° 0.3 mm 4 mps 758 mmHg 89%
    22:00 +7°C° 0.3 mm 4 mps 758 mmHg 90%
    23:00 +7°C° 0.1 mm 4 mps 759 mmHg 90%

    Tomorrow, 22 February, Friday

    Time Temperature Precipitation Wind Pressure Humidity
    00:00 +7°C° 0.1 mm 5 mps 760 mmHg 90%
    01:00 +6°C° 0.1 mm 5 mps 760 mmHg 89%
    02:00 +5°C° 0.1 mm 5 mps 761 mmHg 86%
    03:00 +2°C° 0.1 mm 5 mps 762 mmHg 83%
    04:00 +1°C° 0.1 mm 6 mps 763 mmHg 80%
    05:00 -1°C° 0 mm 6 mps 764 mmHg 77%
    06:00 -1°C° 0 mm 5 mps 766 mmHg 74%
    07:00 -2°C° 0 mm 5 mps 767 mmHg 71%
    08:00 -1°C° 0 mm 5 mps 768 mmHg 64%
    09:00 -1°C° 0 mm 5 mps 769 mmHg 57%
    10:00 -1°C° 0 mm 4 mps 770 mmHg 51%
    11:00 -1°C° 0 mm 4 mps 771 mmHg 47%
    12:00 0°C° 0 mm 4 mps 772 mmHg 44%
    13:00 0°C° 0 mm 4 mps 772 mmHg 41%
    14:00 0°C° 0 mm 4 mps 773 mmHg 41%
    15:00 +1°C° 0 mm 3 mps 773 mmHg 41%
    16:00 +1°C° 0 mm 3 mps 773 mmHg 41%
    17:00 0°C° 0 mm 3 mps 774 mmHg 45%
    18:00 -1°C° 0 mm 2 mps 774 mmHg 49%
    19:00 -2°C° 0 mm 2 mps 775 mmHg 53%
    20:00 -2°C° 0 mm 2 mps 775 mmHg 53%
    21:00 -3°C° 0 mm 2 mps 775 mmHg 53%
    22:00 -3°C° 0 mm 2 mps 776 mmHg 53%
    23:00 -3°C° 0 mm 2 mps 776 mmHg 52%

    Day after tomorrow, 23 February, Saturday

    Time Temperature Precipitation Wind Pressure Humidity
    00:00 -3°C° 0 mm 2 mps 776 mmHg 52%
    01:00 -3°C° 0 mm 2 mps 776 mmHg 52%
    02:00 -3°C° 0 mm 2 mps 776 mmHg 52%
    03:00 -3°C° 0 mm 2 mps 776 mmHg 52%
    04:00 -3°C° 0 mm 2 mps 775 mmHg 52%
    05:00 -3°C° 0 mm 2 mps 776 mmHg 52%
    06:00 -3°C° 0 mm 2 mps 776 mmHg 52%
    07:00 -1°C° 0 mm 1 mps 776 mmHg 52%
    08:00 0°C° 0 mm 1 mps 776 mmHg 46%
    09:00 0°C° 0 mm 1 mps 776 mmHg 41%
    10:00 -1°C° 0 mm 2 mps 776 mmHg 35%
    11:00 +1°C° 0 mm 2 mps 776 mmHg 32%
    12:00 +2°C° 0 mm 2 mps 776 mmHg 29%
    13:00 +3°C° 0 mm 2 mps 775 mmHg 26%
    14:00 +3°C° 0 mm 2 mps 775 mmHg 27%
    15:00 +3°C° 0 mm 2 mps 775 mmHg 28%
    16:00 +4°C° 0 mm 1 mps 774 mmHg 29%
    17:00 +3°C° 0 mm 1 mps 774 mmHg 32%
    18:00 +2°C° 0 mm 1 mps 774 mmHg 34%
    19:00 +1°C° 0 mm 1 mps 774 mmHg 37%
    20:00 +1°C° 0 mm 1 mps 774 mmHg 38%
    21:00 +1°C° 0 mm 1 mps 774 mmHg 38%
    22:00 0°C° 0 mm 1 mps 774 mmHg 39%
    23:00 0°C° 0 mm 1 mps 774 mmHg 39%

    24 February, Sunday

    Time Temperature Precipitation Wind Pressure Humidity
    00:00 0°C° 0 mm 1 mps 773 mmHg 39%
    01:00 0°C° 0 mm 1 mps 773 mmHg 38%
    02:00 0°C° 0 mm 1 mps 773 mmHg 38%
    03:00 0°C° 0 mm 1 mps 773 mmHg 38%
    04:00 0°C° 0 mm 1 mps 773 mmHg 37%
    05:00 +1°C° 0 mm 1 mps 772 mmHg 38%
    06:00 +1°C° 0 mm 1 mps 772 mmHg 38%
    07:00 +1°C° 0 mm 1 mps 772 mmHg 38%
    08:00 +1°C° 0 mm 2 mps 772 mmHg 36%
    09:00 +2°C° 0 mm 2 mps 772 mmHg 34%
    10:00 +4°C° 0 mm 2 mps 772 mmHg 33%
    11:00 +4°C° 0 mm 3 mps 772 mmHg 34%
    12:00 +5°C° 0 mm 3 mps 772 mmHg 34%
    13:00 +8°C° 0 mm 3 mps 772 mmHg 35%
    14:00 +7°C° 0 mm 3 mps 771 mmHg 40%
    15:00 +7°C° 0 mm 3 mps 771 mmHg 44%
    16:00 +7°C° 0 mm 2 mps 771 mmHg 49%
    17:00 +6°C° 0 mm 2 mps 771 mmHg 54%
    18:00 +5°C° 0 mm 2 mps 771 mmHg 60%
    19:00 +3°C° 0 mm 2 mps 771 mmHg 66%
    20:00 +3°C° 0 mm 2 mps 772 mmHg 68%
    21:00 +3°C° 0 mm 2 mps 772 mmHg 71%
    22:00 +3°C° 0 mm 2 mps 772 mmHg 73%
    23:00 +2°C° 0 mm 2 mps 772 mmHg 75%

    25 February, Monday

    Time Temperature Precipitation Wind Pressure Humidity
    00:00 +2°C° 0 mm 2 mps 772 mmHg 77%
    01:00 +2°C° 0 mm 2 mps 772 mmHg 79%
    02:00 +2°C° 0 mm 2 mps 772 mmHg 79%
    03:00 +2°C° 0 mm 2 mps 772 mmHg 79%
    04:00 +1°C° 0 mm 2 mps 772 mmHg 80%
    05:00 +1°C° 0 mm 2 mps 772 mmHg 80%
    06:00 +1°C° 0 mm 2 mps 772 mmHg 80%
    07:00 +1°C° 0 mm 2 mps 773 mmHg 81%
    08:00 +3°C° 0 mm 2 mps 773 mmHg 74%
    09:00 +4°C° 0 mm 2 mps 772 mmHg 68%
    10:00 +6°C° 0 mm 2 mps 772 mmHg 62%
    11:00 +7°C° 0 mm 2 mps 772 mmHg 58%
    12:00 +9°C° 0 mm 2 mps 772 mmHg 55%
    13:00 +10°C° 0 mm 3 mps 772 mmHg 51%
    14:00 +10°C° 0 mm 2 mps 772 mmHg 53%
    15:00 +10°C° 0 mm 2 mps 772 mmHg 54%
    16:00 +12°C° 0 mm 2 mps 771 mmHg 56%
    17:00 +9°C° 0 mm 2 mps 771 mmHg 62%
    18:00 +8°C° 0 mm 2 mps 771 mmHg 67%
    19:00 +7°C° 0 mm 2 mps 771 mmHg 72%
    20:00 +6°C° 0 mm 2 mps 770 mmHg 74%
    21:00 +6°C° 0 mm 2 mps 770 mmHg 76%
    22:00 +5°C° 0 mm 2 mps 770 mmHg 78%
    23:00 +5°C° 0 mm 2 mps 770 mmHg 80%

    26 February, Tuesday

    Time Temperature Precipitation Wind Pressure Humidity
    00:00 +5°C° 0 mm 2 mps 769 mmHg 81%
    01:00 +3°C° 0 mm 3 mps 769 mmHg 83%
    02:00 +3°C° 0 mm 3 mps 769 mmHg 84%
    03:00 +3°C° 0 mm 3 mps 768 mmHg 86%
    04:00 +3°C° 0 mm 3 mps 768 mmHg 88%
    05:00 +3°C° 0 mm 3 mps 767 mmHg 87%
    06:00 +2°C° 0 mm 3 mps 767 mmHg 86%
    07:00 +2°C° 0 mm 3 mps 767 mmHg 86%
    08:00 +4°C° 0 mm 4 mps 766 mmHg 77%
    09:00 +5°C° 0 mm 4 mps 766 mmHg 68%
    10:00 +6°C° 0 mm 4 mps 766 mmHg 59%
    11:00 +8°C° 0 mm 5 mps 766 mmHg 59%
    12:00 +9°C° 0 mm 5 mps 765 mmHg 58%
    13:00 +10°C° 0 mm 5 mps 765 mmHg 58%
    14:00 +10°C° 0 mm 5 mps 765 mmHg 61%
    15:00 +12°C° 0 mm 5 mps 765 mmHg 63%
    16:00 +12°C° 0 mm 5 mps 764 mmHg 66%
    17:00 +10°C° 0 mm 4 mps 765 mmHg 72%
    18:00 +8°C° 0 mm 4 mps 765 mmHg 79%
    19:00 +8°C° 0 mm 3 mps 765 mmHg 86%
    20:00 +7°C° 0 mm 3 mps 765 mmHg 87%
    21:00 +7°C° 0 mm 3 mps 765 mmHg 88%
    22:00 +5°C° 0 mm 3 mps 766 mmHg 90%
    23:00 +6°C° 0 mm 2 mps 766 mmHg 91%
    Show more